Moline, Illinois, United States (61265)
Lat: 41.51N, Lon: 90.52W
Wx Zone: ILZ015
Local Info
Past Weather Observations for Today

NOTE: This archive is for the closest National Weather Service station to Moline. Information may differ from the station used for current weather conditions.

Click here for Long-term Archive

Time Weather Temperature Dewpoint Humidity Pressure Winds Precip Visibility
13:52
Clear
Hazy
68°F / 20°C 52°F / 11°C 56% 29.95 in
(1014 mb)
SW 13.8 mph
(SW 22 kph)
- 5SM
12:52
Clear
66°F / 19°C 50°F / 10°C 56% 29.98 in
(1015 mb)
SSE 10.4 mph
(SSE 17 kph)
- 10SM
11:52
Clear
64°F / 18°C 54°F / 12°C 68% 30.04 in
(1017 mb)
S 10.4 mph
(S 17 kph)
- 10SM
10:52
Partly Cloudy
59°F / 15°C 54°F / 12°C 82% 30.06 in
(1018 mb)
SSE 5.8 mph
(SSE 9 kph)
- 8SM
10:49
Partly Cloudy
59°F / 15°C 54°F / 12°C 82% 30.06 in
(1018 mb)
S 6.9 mph
(S 11 kph)
- 8SM
09:54
Overcast
Fog And Mist
55°F / 13°C 52°F / 11°C 88% 30.06 in
(1018 mb)
S 9.2 mph
(S 15 kph)
- 3SM
09:52
Overcast
Fog And Mist
55°F / 13°C 52°F / 11°C 88% 30.06 in
(1018 mb)
S 6.9 mph
(S 11 kph)
- 1 1/2SM
09:35
Overcast
Fog And Mist
54°F / 12°C 54°F / 12°C 100% 30.06 in
(1018 mb)
SSE 5.8 mph
(SSE 9 kph)
- 1 1/2SM
08:52
Overcast
Fog And Mist
54°F / 12°C 52°F / 11°C 94% 30.06 in
(1018 mb)
SW 6.9 mph
(SW 11 kph)
- 3/4SM
07:52
Overcast
Fog And Mist
54°F / 12°C 54°F / 12°C 100% 30.06 in
(1018 mb)
S 5.8 mph
(S 9 kph)
- 3/4SM
06:52
Overcast
Fog And Mist
52°F / 11°C 50°F / 10°C 94% 30.06 in
(1018 mb)
Calm - 3/4SM
05:52
Overcast
Fog And Mist
50°F / 10°C 48°F / 9°C 94% 30.06 in
(1018 mb)
E 3.5 mph
(E 6 kph)
- 3/4SM
05:45
Overcast
Fog And Mist
50°F / 10°C 48°F / 9°C 94% 30.06 in
(1018 mb)
E 3.5 mph
(E 6 kph)
- 3/4SM
05:33
Overcast
Fog And Mist
50°F / 10°C 48°F / 9°C 94% 30.06 in
(1018 mb)
E 4.6 mph
(E 7 kph)
- 1SM
05:23
Overcast
Fog And Mist
50°F / 10°C 48°F / 9°C 94% 30.06 in
(1018 mb)
E 3.5 mph
(E 6 kph)
- 3/4SM
05:11
Overcast
Fog And Mist
50°F / 10°C 48°F / 9°C 94% 30.06 in
(1018 mb)
Calm - 1 1/4SM
05:05
Overcast
Fog And Mist
48°F / 9°C 48°F / 9°C 100% 30.06 in
(1018 mb)
Calm - 2SM
04:52
Overcast
Fog And Mist
48°F / 9°C 48°F / 9°C 100% 30.06 in
(1018 mb)
Calm - 4SM
04:35
Overcast
Fog And Mist
48°F / 9°C 48°F / 9°C 100% 30.06 in
(1018 mb)
Calm - 4SM
03:59
Overcast
Fog And Mist
48°F / 9°C 46°F / 8°C 94% 30.06 in
(1018 mb)
Calm - 6SM
03:52
Overcast
Fog And Mist
48°F / 9°C 46°F / 8°C 94% 30.06 in
(1018 mb)
Calm - 6SM
03:13
Overcast
Fog And Mist
46°F / 8°C 45°F / 7°C 93% 30.06 in
(1018 mb)
Calm - 3SM
02:55
Overcast
Fog And Mist
45°F / 7°C 45°F / 7°C 100% 30.06 in
(1018 mb)
Calm - 1 3/4SM
02:52
Overcast
Fog And Mist
45°F / 7°C 43°F / 6°C 93% 30.06 in
(1018 mb)
Calm - 3/4SM
02:43
Overcast
Fog And Mist
45°F / 7°C 43°F / 6°C 93% 30.06 in
(1018 mb)
Calm - 3/4SM
02:38
Overcast
Fog And Mist
43°F / 6°C 43°F / 6°C 100% 30.06 in
(1018 mb)
Calm - 1 3/4SM
02:35
Overcast
Fog And Mist
43°F / 6°C 43°F / 6°C 100% 30.06 in
(1018 mb)
Calm - 2SM
02:33
Overcast
Fog And Mist
43°F / 6°C 43°F / 6°C 100% 30.06 in
(1018 mb)
Calm - 1 1/2SM
02:31
Overcast
Fog And Mist
43°F / 6°C 43°F / 6°C 100% 30.06 in
(1018 mb)
Calm - 3/4SM
02:22
Overcast
Fog
43°F / 6°C 43°F / 6°C 100% 30.06 in
(1018 mb)
Calm - 1/4SM
02:10
Overcast
Fog And Mist
43°F / 6°C 41°F / 5°C 93% 30.06 in
(1018 mb)
Calm - 3/4SM
02:07
Mostly Cloudy
Fog And Mist
43°F / 6°C 41°F / 5°C 93% 30.06 in
(1018 mb)
Calm - 1 1/2SM
01:54
Mostly Cloudy
Fog And Mist
43°F / 6°C 41°F / 5°C 93% 30.06 in
(1018 mb)
Calm - 1 1/4SM
01:52
Mostly Cloudy
Fog And Mist
43°F / 6°C 41°F / 5°C 93% 30.06 in
(1018 mb)
Calm - 2SM
01:50
Mostly Cloudy
Fog And Mist
41°F / 5°C 41°F / 5°C 100% 30.06 in
(1018 mb)
Calm - 1 3/4SM
01:47
Obscured
Fog
43°F / 6°C 41°F / 5°C 93% 30.06 in
(1018 mb)
Calm - 1/2SM
01:36
Obscured
Fog
39°F / 4°C 39°F / 4°C 100% 30.06 in
(1018 mb)
Calm - 1/4SM
01:27
Obscured
Fog
41°F / 5°C 41°F / 5°C 100% 30.04 in
(1017 mb)
Calm - 1/2SM
01:08
Clear
Fog
45°F / 7°C 43°F / 6°C 93% 30.06 in
(1018 mb)
Calm - 1/4SM
00:58
Clear
Fog And Mist
45°F / 7°C 43°F / 6°C 93% 30.06 in
(1018 mb)
Calm - 3/4SM
00:56
Clear
Fog And Mist
45°F / 7°C 43°F / 6°C 93% 30.06 in
(1018 mb)
Calm - 1 1/2SM
00:52
Clear
Fog And Mist
45°F / 7°C 43°F / 6°C 93% 30.06 in
(1018 mb)
Calm - 6SM
Time Weather Temperature Dewpoint Humidity Pressure Winds Precip Visibility


Weather for websites

WeatherForYou.com, LLC is not responsible for any damages or problems caused by this service. Current weather conditions are obtained from the closest station including government and personal stations which may have varying degrees of accuracy. Weather forecasts are derived from the NOAA NDFD. Like all things, this site belongs to Jesus Christ... He just trusts me to maintain it. If you have any questions or comments email webmaster@weatherforyou.com

Copyright © 2014, WeatherForYou.com LLC. All rights reserved.